| time (UTC) | temp F | wind direction | speed knots | gust knots | rain 1hr in | rain 24hr in | rain mn in | humidity % | barometer mb |
| 20260507101258 | 48 | 214 | 0.0 | 0.0 | 0.04 | 0.16 | 0.11 | 87 | 1007.0 |
| 20260507101014 | 48 | 213 | 0.0 | 0.0 | 0.04 | 0.15 | 0.10 | 87 | 1007.0 |
| 20260507100242 | 48 | 214 | 0.0 | 0.9 | 0.05 | 0.15 | 0.10 | 87 | 1007.0 |
| 20260507095732 | 48 | 214 | 0.0 | 0.9 | 0.05 | 0.15 | 0.10 | 86 | 1006.8 |
| 20260507095226 | 48 | 251 | 0.0 | 1.7 | 0.06 | 0.15 | 0.10 | 86 | 1006.7 |
| 20260507094727 | 48 | 289 | 0.0 | 1.7 | 0.06 | 0.15 | 0.10 | 86 | 1006.8 |
| 20260507094224 | 48 | 29 | 0.0 | 0.9 | 0.05 | 0.14 | 0.09 | 86 | 1006.7 |
| 20260507093721 | 48 | 29 | 0.0 | 1.7 | 0.05 | 0.14 | 0.09 | 86 | 1006.6 |
| 20260507093455 | 49 | 284 | 0.0 | 1.7 | 0.05 | 0.14 | 0.09 | 86 | 1006.7 |
| 20260507092723 | 49 | 355 | 0.0 | 3.5 | 0.05 | 0.14 | 0.09 | 86 | 1006.8 |
| 20260507092452 | 49 | 45 | 0.0 | 3.5 | 0.06 | 0.14 | 0.09 | 86 | 1006.9 |
| 20260507091722 | 49 | 352 | 0.0 | 0.0 | 0.05 | 0.13 | 0.08 | 86 | 1006.8 |
| 20260507091220 | 49 | 352 | 0.0 | 0.0 | 0.04 | 0.12 | 0.07 | 86 | 1006.9 |
| 20260507090949 | 49 | 352 | 0.0 | 0.0 | 0.03 | 0.11 | 0.06 | 86 | 1007.0 |
| 20260507090217 | 49 | 352 | 0.0 | 0.9 | 0.02 | 0.10 | 0.05 | 86 | 1007.1 |
| 20260507085718 | 49 | 352 | 0.0 | 0.9 | 0.03 | 0.10 | 0.05 | 86 | 1007.2 |
| 20260507085218 | 49 | 352 | 0.0 | 2.6 | 0.02 | 0.09 | 0.04 | 86 | 1007.0 |
| 20260507084721 | 50 | 170 | 0.0 | 2.6 | 0.02 | 0.09 | 0.04 | 86 | 1007.0 |
| 20260507084218 | 50 | 22 | 0.0 | 0.0 | 0.03 | 0.09 | 0.04 | 85 | 1006.9 |
| 20260507083947 | 50 | 22 | 0.0 | 0.9 | 0.04 | 0.09 | 0.04 | 85 | 1006.9 |
| 20260507083448 | 50 | 22 | 0.0 | 0.9 | 0.04 | 0.09 | 0.04 | 85 | 1006.8 |
| 20260507082716 | 50 | 22 | 0.0 | 2.6 | 0.04 | 0.09 | 0.04 | 85 | 1006.7 |
| 20260507082216 | 51 | 22 | 0.0 | 2.6 | 0.03 | 0.08 | 0.04 | 85 | 1006.6 |
| 20260507081716 | 51 | 270 | 0.0 | 2.6 | 0.03 | 0.08 | 0.03 | 85 | 1006.4 |
| 20260507081202 | 51 | 167 | 0.0 | 1.7 | 0.03 | 0.08 | 0.03 | 85 | 1006.4 |
| 20260507080648 | 52 | 241 | 0.0 | 2.6 | 0.03 | 0.08 | 0.03 | 85 | 1006.7 |
| 20260507080148 | 52 | 324 | 0.0 | 2.6 | 0.03 | 0.08 | 0.03 | 85 | 1006.6 |
| 20260507075645 | 53 | 272 | 0.0 | 2.6 | 0.02 | 0.07 | 0.02 | 85 | 1006.6 |
| 20260507075144 | 53 | 272 | 0.0 | 2.6 | 0.02 | 0.07 | 0.02 | 85 | 1006.6 |
| 20260507074646 | 53 | 145 | 0.0 | 0.9 | 0.02 | 0.07 | 0.02 | 84 | 1006.3 |
| 20260507074144 | 53 | 256 | 0.0 | 0.9 | 0.01 | 0.06 | 0.01 | 84 | 1006.4 |
| 20260507073641 | 53 | 255 | 0.0 | 0.9 | 0.00 | 0.05 | 0.00 | 83 | 1006.5 |
| 20260507073139 | 53 | 250 | 0.0 | 0.9 | 0.00 | 0.05 | 0.00 | 83 | 1006.6 |
| 20260507072908 | 53 | 250 | 0.0 | 0.9 | 0.00 | 0.05 | 0.00 | 83 | 1006.0 |
| 20260507072409 | 53 | 27 | 0.0 | 0.9 | 0.00 | 0.05 | 0.00 | 82 | 1005.8 |
| 20260507072245 | 53 | 38 | 0.0 | 0.9 | 0.00 | 0.05 | 0.00 | 82 | 1005.7 |
| 20260507071135 | 53 | 37 | 0.0 | 0.9 | 0.00 | 0.05 | 0.00 | 82 | 1005.8 |
| 20260507070634 | 53 | 13 | 0.0 | 0.0 | 0.00 | 0.05 | 0.00 | 82 | 1006.0 |
| 20260507070124 | 53 | 13 | 0.0 | 2.6 | 0.00 | 0.05 | 0.00 | 82 | 1005.9 |
| 20260507065621 | 54 | 13 | 0.0 | 2.6 | 0.00 | 0.05 | 0.00 | 81 | 1005.8 |
| 20260507065353 | 54 | 345 | 0.0 | 2.6 | 0.00 | 0.05 | 0.00 | 81 | 1005.8 |
| 20260507064855 | 54 | 158 | 0.0 | 1.7 | 0.00 | 0.05 | 0.00 | 82 | 1005.9 |
| 20260507064122 | 54 | 108 | 0.0 | 0.9 | 0.00 | 0.05 | 0.00 | 84 | 1005.9 |
| 20260507063624 | 55 | 12 | 0.0 | 6.1 | 0.00 | 0.05 | 0.00 | 84 | 1006.0 |
| 20260507063619 | 55 | 12 | 0.0 | 0.9 | 0.00 | 0.05 | 0.00 | 84 | 1005.9 |
| 20260507062848 | 55 | 12 | 0.0 | 6.1 | 0.00 | 0.05 | 0.00 | 85 | 1005.9 |
| 20260507062118 | 55 | 39 | 0.0 | 0.9 | 0.00 | 0.05 | 0.00 | 84 | 1005.8 |
| 20260507061618 | 56 | 76 | 0.0 | 1.7 | 0.00 | 0.05 | 0.00 | 85 | 1005.7 |
| 20260507061117 | 56 | 137 | 0.0 | 1.7 | 0.00 | 0.05 | 0.00 | 85 | 1005.6 |
| 20260507060616 | 56 | 22 | 0.0 | 1.7 | 0.00 | 0.05 | 0.00 | 85 | 1005.9 |
| 20260507060104 | 56 | 22 | 0.0 | 1.7 | 0.00 | 0.05 | 0.00 | 85 | 1005.9 |
| 20260507055604 | 56 | 140 | 0.0 | 0.9 | 0.00 | 0.05 | 0.00 | 85 | 1005.9 |
| 20260507055101 | 56 | 133 | 0.0 | 0.9 | 0.00 | 0.05 | 0.00 | 85 | 1005.8 |
| 20260507054602 | 56 | 133 | 0.0 | 0.9 | 0.00 | 0.05 | 0.00 | 85 | 1006.0 |
| 20260507054059 | 56 | 203 | 0.0 | 0.9 | 0.00 | 0.05 | 0.00 | 85 | 1006.2 |
| 20260507053832 | 56 | 209 | 0.0 | 0.0 | 0.00 | 0.05 | 0.00 | 85 | 1006.4 |
| 20260507053059 | 56 | 209 | 0.0 | 3.5 | 0.00 | 0.05 | 0.00 | 85 | 1006.2 |
| 20260507052559 | 57 | 209 | 0.0 | 3.5 | 0.00 | 0.05 | 0.00 | 84 | 1006.1 |
| 20260507052100 | 57 | 332 | 0.0 | 4.3 | 0.00 | 0.05 | 0.00 | 84 | 1006.0 |
| 20260507051556 | 57 | 332 | 0.0 | 4.3 | 0.00 | 0.05 | 0.00 | 85 | 1005.8 |
| 20260507051057 | 57 | 123 | 0.0 | 2.6 | 0.00 | 0.05 | 0.00 | 85 | 1005.7 |
| 20260507050556 | 58 | 262 | 0.0 | 2.6 | 0.00 | 0.05 | 0.00 | 85 | 1005.8 |
| 20260507050053 | 58 | 341 | 0.0 | 2.6 | 0.00 | 0.05 | 0.00 | 85 | 1005.8 |
| 20260507045552 | 58 | 7 | 0.0 | 3.5 | 0.00 | 0.05 | 0.00 | 85 | 1005.9 |
| 20260507045049 | 58 | 284 | 0.0 | 3.5 | 0.00 | 0.05 | 0.00 | 85 | 1006.0 |
| 20260507044549 | 58 | 270 | 0.0 | 1.7 | 0.00 | 0.05 | 0.00 | 85 | 1006.0 |
| 20260507044050 | 58 | 162 | 0.0 | 1.7 | 0.00 | 0.05 | 0.00 | 85 | 1005.8 |
| 20260507043550 | 58 | 143 | 0.0 | 1.7 | 0.00 | 0.05 | 0.00 | 85 | 1005.8 |
| 20260507043050 | 58 | 245 | 0.0 | 2.6 | 0.00 | 0.05 | 0.00 | 85 | 1005.8 |
| 20260507042549 | 58 | 302 | 0.0 | 2.6 | 0.00 | 0.05 | 0.00 | 86 | 1005.9 |
| 20260507042049 | 59 | 227 | 0.0 | 2.6 | 0.00 | 0.05 | 0.00 | 86 | 1005.9 |
| 20260507041550 | 59 | 268 | 0.0 | 1.7 | 0.00 | 0.05 | 0.00 | 86 | 1005.8 |
| 20260507041051 | 59 | 259 | 0.0 | 1.7 | 0.00 | 0.05 | 0.00 | 86 | 1005.8 |
| 20260507040549 | 59 | 237 | 0.0 | 1.7 | 0.00 | 0.05 | 0.00 | 86 | 1006.0 |
| 20260507040049 | 59 | 218 | 0.0 | 1.7 | 0.00 | 0.05 | 0.00 | 86 | 1006.3 |
| 20260507035550 | 59 | 218 | 0.0 | 2.6 | 0.00 | 0.05 | 0.05 | 86 | 1006.2 |
| 20260507035050 | 59 | 218 | 0.9 | 2.6 | 0.00 | 0.05 | 0.05 | 86 | 1006.0 |
| 20260507034549 | 59 | 218 | 0.9 | 4.3 | 0.00 | 0.05 | 0.05 | 86 | 1005.9 |
| 20260507034047 | 59 | 209 | 0.9 | 4.3 | 0.00 | 0.05 | 0.05 | 86 | 1005.9 |
| 20260507033546 | 59 | 204 | 0.9 | 3.5 | 0.00 | 0.05 | 0.05 | 86 | 1005.7 |
| 20260507033045 | 59 | 205 | 0.0 | 2.6 | 0.00 | 0.05 | 0.05 | 86 | 1005.8 |
| 20260507032545 | 59 | 205 | 0.9 | 2.6 | 0.00 | 0.05 | 0.05 | 86 | 1005.8 |
| 20260507032048 | 59 | 203 | 0.9 | 4.3 | 0.00 | 0.05 | 0.05 | 86 | 1005.6 |
| 20260507031818 | 59 | 203 | 1.7 | 5.2 | 0.00 | 0.05 | 0.05 | 86 | 1005.4 |
| 20260507031048 | 59 | 208 | 1.7 | 5.2 | 0.00 | 0.05 | 0.05 | 86 | 1005.4 |
| 20260507030547 | 59 | 208 | 0.9 | 4.3 | 0.00 | 0.05 | 0.05 | 86 | 1005.4 |
| 20260507030047 | 59 | 210 | 1.7 | 3.5 | 0.00 | 0.05 | 0.05 | 86 | 1005.3 |
| 20260507025545 | 59 | 210 | 1.7 | 3.5 | 0.00 | 0.05 | 0.05 | 86 | 1005.1 |
| 20260507025046 | 59 | 198 | 1.7 | 5.2 | 0.00 | 0.05 | 0.05 | 86 | 1005.2 |
| 20260507024545 | 59 | 300 | 1.7 | 5.2 | 0.00 | 0.05 | 0.05 | 86 | 1005.3 |
| 20260507024045 | 59 | 194 | 1.7 | 5.2 | 0.00 | 0.05 | 0.05 | 86 | 1005.5 |
| 20260507023815 | 58 | 202 | 1.7 | 4.3 | 0.00 | 0.05 | 0.05 | 86 | 1005.5 |
| 20260507023316 | 58 | 205 | 0.9 | 4.3 | 0.00 | 0.05 | 0.05 | 86 | 1005.5 |
| 20260507022544 | 58 | 205 | 0.9 | 4.3 | 0.00 | 0.05 | 0.05 | 86 | 1005.5 |
| 20260507022041 | 58 | 226 | 1.7 | 4.3 | 0.00 | 0.05 | 0.05 | 86 | 1005.4 |
| 20260507021542 | 58 | 192 | 0.9 | 4.3 | 0.00 | 0.05 | 0.05 | 86 | 1005.5 |
| 20260507021314 | 58 | 189 | 0.9 | 4.3 | 0.00 | 0.05 | 0.05 | 86 | 1005.4 |
| 20260507020539 | 58 | 185 | 0.9 | 4.3 | 0.00 | 0.05 | 0.05 | 86 | 1005.4 |
| 20260507020038 | 58 | 208 | 0.9 | 4.3 | 0.00 | 0.05 | 0.05 | 86 | 1005.4 |
| 20260507015535 | 58 | 206 | 1.7 | 4.3 | 0.00 | 0.05 | 0.05 | 86 | 1005.4 |
| 20260507015032 | 58 | 190 | 1.7 | 4.3 | 0.00 | 0.05 | 0.05 | 86 | 1005.4 |
| 20260507014532 | 58 | 220 | 1.7 | 4.3 | 0.00 | 0.05 | 0.05 | 86 | 1005.5 |
| 20260507014017 | 58 | 214 | 1.7 | 4.3 | 0.00 | 0.05 | 0.05 | 86 | 1005.5 |
| 20260507013517 | 58 | 217 | 1.7 | 4.3 | 0.00 | 0.05 | 0.05 | 86 | 1005.5 |
| 20260507013018 | 58 | 210 | 1.7 | 6.1 | 0.00 | 0.05 | 0.05 | 86 | 1005.5 |
| 20260507012517 | 58 | 212 | 1.7 | 6.1 | 0.00 | 0.05 | 0.05 | 86 | 1005.6 |
| 20260507012017 | 58 | 206 | 2.6 | 5.2 | 0.00 | 0.05 | 0.05 | 86 | 1005.7 |
| 20260507011515 | 58 | 211 | 1.7 | 4.3 | 0.00 | 0.05 | 0.05 | 86 | 1005.7 |
| 20260507011015 | 58 | 189 | 1.7 | 7.0 | 0.00 | 0.05 | 0.05 | 86 | 1005.7 |
| 20260507010516 | 58 | 214 | 1.7 | 7.0 | 0.00 | 0.05 | 0.05 | 86 | 1005.7 |
| 20260507010246 | 58 | 207 | 2.6 | 5.2 | 0.00 | 0.05 | 0.05 | 86 | 1005.8 |
| 20260507005517 | 58 | 182 | 1.7 | 5.2 | 0.00 | 0.05 | 0.05 | 86 | 1005.8 |
| 20260507005016 | 57 | 202 | 1.7 | 3.5 | 0.00 | 0.05 | 0.05 | 86 | 1005.8 |
| 20260507004515 | 57 | 200 | 1.7 | 5.2 | 0.00 | 0.05 | 0.05 | 86 | 1005.8 |
| 20260507004015 | 58 | 234 | 1.7 | 5.2 | 0.00 | 0.05 | 0.05 | 86 | 1005.7 |
| 20260507003513 | 58 | 198 | 1.7 | 7.0 | 0.00 | 0.05 | 0.05 | 86 | 1005.7 |
| 20260507003014 | 58 | 208 | 1.7 | 7.0 | 0.01 | 0.05 | 0.05 | 86 | 1005.7 |
| 20260507002513 | 58 | 197 | 1.7 | 7.8 | 0.01 | 0.05 | 0.05 | 86 | 1005.8 |
| 20260507002011 | 58 | 218 | 1.7 | 7.8 | 0.01 | 0.05 | 0.05 | 86 | 1005.7 |
| 20260507001509 | 58 | 147 | 1.7 | 5.2 | 0.02 | 0.05 | 0.05 | 86 | 1005.7 |
| 20260507001007 | 58 | 205 | 2.6 | 5.2 | 0.02 | 0.05 | 0.05 | 86 | 1005.6 |
| 20260507000507 | 58 | 197 | 2.6 | 6.1 | 0.02 | 0.05 | 0.05 | 86 | 1005.5 |
| 20260507000007 | 58 | 205 | 2.6 | 6.1 | 0.02 | 0.05 | 0.05 | 86 | 1005.4 |
| 20260506235500 | 58 | 199 | 2.6 | 5.2 | 0.02 | 0.05 | 0.05 | 86 | 1005.4 |
| 20260506234954 | 58 | 204 | 1.7 | 5.2 | 0.02 | 0.05 | 0.05 | 86 | 1005.5 |
| 20260506234447 | 58 | 207 | 1.7 | 6.1 | 0.02 | 0.05 | 0.05 | 86 | 1005.6 |
| 20260506233947 | 58 | 196 | 2.6 | 6.1 | 0.02 | 0.05 | 0.05 | 85 | 1005.6 |
| 20260506233447 | 58 | 205 | 1.7 | 6.1 | 0.02 | 0.05 | 0.05 | 85 | 1005.5 |
| 20260506232945 | 59 | 200 | 2.6 | 7.0 | 0.01 | 0.04 | 0.04 | 85 | 1005.4 |
| 20260506232445 | 59 | 212 | 2.6 | 7.0 | 0.01 | 0.04 | 0.04 | 85 | 1005.4 |
| 20260506231943 | 59 | 308 | 1.7 | 5.2 | 0.01 | 0.04 | 0.04 | 85 | 1005.4 |
| 20260506231712 | 59 | 201 | 1.7 | 5.2 | 0.00 | 0.03 | 0.03 | 85 | 1005.4 |
| 20260506230941 | 59 | 209 | 1.7 | 4.3 | 0.00 | 0.03 | 0.03 | 85 | 1005.4 |
| 20260506230441 | 59 | 192 | 1.7 | 5.2 | 0.00 | 0.03 | 0.03 | 85 | 1005.4 |
| 20260506225939 | 59 | 198 | 1.7 | 5.2 | 0.00 | 0.03 | 0.03 | 85 | 1005.4 |
| 20260506225708 | 60 | 214 | 1.7 | 4.3 | 0.00 | 0.03 | 0.03 | 85 | 1005.4 |
| 20260506224931 | 60 | 205 | 2.6 | 6.1 | 0.01 | 0.03 | 0.03 | 85 | 1005.5 |
| 20260506224421 | 60 | 216 | 2.6 | 7.0 | 0.01 | 0.03 | 0.03 | 85 | 1005.5 |
| 20260506223913 | 60 | 216 | 2.6 | 7.0 | 0.01 | 0.03 | 0.03 | 85 | 1005.6 |
| 20260506223413 | 60 | 206 | 2.6 | 7.0 | 0.01 | 0.03 | 0.03 | 85 | 1005.6 |
| 20260506222913 | 60 | 220 | 2.6 | 7.0 | 0.01 | 0.03 | 0.03 | 85 | 1005.7 |
| 20260506222413 | 60 | 206 | 2.6 | 6.1 | 0.01 | 0.03 | 0.03 | 85 | 1005.7 |
| 20260506221913 | 60 | 210 | 3.5 | 6.1 | 0.01 | 0.03 | 0.03 | 85 | 1005.8 |
| 20260506221413 | 60 | 207 | 2.6 | 6.1 | 0.01 | 0.03 | 0.03 | 85 | 1005.8 |
| 20260506220913 | 60 | 208 | 2.6 | 6.1 | 0.01 | 0.03 | 0.03 | 85 | 1005.8 |
| 20260506220413 | 60 | 208 | 1.7 | 5.2 | 0.01 | 0.03 | 0.03 | 85 | 1005.8 |
| 20260506220144 | 60 | 207 | 2.6 | 5.2 | 0.01 | 0.03 | 0.03 | 84 | 1005.9 |
| 20260506215413 | 60 | 214 | 3.5 | 8.7 | 0.01 | 0.03 | 0.03 | 84 | 1006.1 |
| 20260506214915 | 61 | 195 | 2.6 | 8.7 | 0.00 | 0.02 | 0.02 | 84 | 1006.1 |
| 20260506214410 | 61 | 237 | 2.6 | 7.0 | 0.00 | 0.02 | 0.02 | 83 | 1006.2 |
| 20260506213853 | 61 | 201 | 2.6 | 7.8 | 0.00 | 0.02 | 0.02 | 83 | 1006.2 |
| 20260506213339 | 61 | 204 | 2.6 | 8.7 | 0.00 | 0.02 | 0.02 | 83 | 1006.4 |
| 20260506212833 | 61 | 208 | 2.6 | 8.7 | 0.00 | 0.02 | 0.02 | 83 | 1006.3 |
| 20260506212333 | 61 | 205 | 2.6 | 8.7 | 0.00 | 0.02 | 0.02 | 83 | 1006.3 |
| 20260506211831 | 61 | 203 | 2.6 | 8.7 | 0.00 | 0.02 | 0.02 | 82 | 1006.3 |
| 20260506211331 | 61 | 214 | 3.5 | 7.8 | 0.00 | 0.02 | 0.02 | 83 | 1006.2 |
| 20260506210831 | 61 | 188 | 3.5 | 7.8 | 0.00 | 0.02 | 0.02 | 83 | 1006.3 |
| 20260506210331 | 61 | 133 | 2.6 | 5.2 | 0.00 | 0.02 | 0.02 | 83 | 1006.3 |
| 20260506205831 | 61 | 205 | 1.7 | 7.0 | 0.00 | 0.02 | 0.02 | 82 | 1006.3 |
| 20260506205331 | 61 | 234 | 1.7 | 7.0 | 0.00 | 0.02 | 0.02 | 82 | 1006.4 |
| 20260506204830 | 61 | 199 | 2.6 | 7.0 | 0.01 | 0.02 | 0.02 | 82 | 1006.5 |
| 20260506204331 | 61 | 215 | 3.5 | 7.8 | 0.01 | 0.02 | 0.02 | 81 | 1006.7 |
| 20260506203829 | 62 | 187 | 3.5 | 8.7 | 0.01 | 0.02 | 0.02 | 81 | 1006.6 |
| 20260506203312 | 62 | 208 | 2.6 | 8.7 | 0.01 | 0.02 | 0.02 | 80 | 1006.6 |
| 20260506202758 | 62 | 216 | 2.6 | 7.0 | 0.01 | 0.02 | 0.02 | 80 | 1006.5 |
| 20260506202255 | 62 | 207 | 1.7 | 4.3 | 0.02 | 0.02 | 0.02 | 80 | 1006.5 |
| 20260506201755 | 62 | 210 | 2.6 | 7.8 | 0.02 | 0.02 | 0.02 | 80 | 1006.5 |
| 20260506201254 | 62 | 205 | 2.6 | 7.8 | 0.02 | 0.02 | 0.02 | 80 | 1006.5 |
| 20260506200755 | 62 | 201 | 2.6 | 5.2 | 0.02 | 0.02 | 0.02 | 80 | 1006.4 |
| 20260506200527 | 62 | 208 | 2.6 | 5.2 | 0.02 | 0.02 | 0.02 | 80 | 1006.3 |
| 20260506195754 | 63 | 197 | 2.6 | 6.1 | 0.02 | 0.02 | 0.02 | 79 | 1006.3 |
| 20260506195255 | 63 | 206 | 2.6 | 6.1 | 0.02 | 0.02 | 0.02 | 79 | 1006.3 |
| 20260506194755 | 63 | 227 | 1.7 | 7.8 | 0.01 | 0.01 | 0.01 | 79 | 1006.5 |
| 20260506194528 | 64 | 186 | 2.6 | 7.8 | 0.01 | 0.01 | 0.01 | 78 | 1006.7 |
| 20260506193753 | 64 | 197 | 2.6 | 7.0 | 0.01 | 0.01 | 0.01 | 77 | 1006.7 |
| 20260506193523 | 64 | 201 | 2.6 | 7.8 | 0.01 | 0.01 | 0.01 | 76 | 1006.8 |
| 20260506192757 | 65 | 302 | 2.6 | 9.6 | 0.00 | 0.00 | 0.00 | 73 | 1006.7 |
| 20260506192753 | 65 | 200 | 3.5 | 9.6 | 0.01 | 0.01 | 0.01 | 75 | 1006.8 |
| 20260506191752 | 66 | 184 | 2.6 | 6.1 | 0.00 | 0.00 | 0.00 | 71 | 1006.8 |
| 20260506191253 | 67 | 205 | 2.6 | 6.1 | 0.00 | 0.00 | 0.00 | 68 | 1006.6 |
| 20260506190753 | 68 | 199 | 2.6 | 5.2 | 0.00 | 0.00 | 0.00 | 66 | 1006.6 |
| 20260506190524 | 68 | 284 | 2.6 | 6.1 | 0.00 | 0.00 | 0.00 | 64 | 1006.5 |
| 20260506185753 | 68 | 210 | 2.6 | 6.1 | 0.00 | 0.00 | 0.00 | 64 | 1006.5 |
| 20260506185252 | 69 | 213 | 1.7 | 4.3 | 0.00 | 0.00 | 0.00 | 63 | 1006.6 |
| 20260506185024 | 69 | 194 | 1.7 | 7.0 | 0.00 | 0.00 | 0.00 | 63 | 1006.7 |
| 20260506184525 | 69 | 201 | 2.6 | 7.0 | 0.00 | 0.00 | 0.00 | 62 | 1006.7 |
| 20260506183753 | 69 | 154 | 3.5 | 7.0 | 0.00 | 0.00 | 0.00 | 61 | 1006.7 |
| 20260506183253 | 70 | 189 | 3.5 | 9.6 | 0.00 | 0.00 | 0.00 | 59 | 1006.8 |
| 20260506183023 | 70 | 259 | 3.5 | 9.6 | 0.00 | 0.00 | 0.00 | 58 | 1006.7 |
| 20260506182253 | 70 | 204 | 3.5 | 8.7 | 0.00 | 0.00 | 0.00 | 58 | 1006.8 |
| 20260506181752 | 70 | 203 | 3.5 | 8.7 | 0.00 | 0.00 | 0.00 | 58 | 1006.7 |
| 20260506181250 | 70 | 203 | 3.5 | 8.7 | 0.00 | 0.00 | 0.00 | 58 | 1006.7 |
| 20260506180745 | 71 | 177 | 4.3 | 8.7 | 0.00 | 0.00 | 0.00 | 58 | 1006.7 |
| 20260506180242 | 71 | 208 | 4.3 | 8.7 | 0.00 | 0.00 | 0.00 | 58 | 1006.9 |
| 20260506175737 | 71 | 194 | 4.3 | 8.7 | 0.00 | 0.00 | 0.00 | 58 | 1007.0 |
| 20260506175237 | 71 | 199 | 4.3 | 8.7 | 0.00 | 0.00 | 0.00 | 58 | 1007.1 |
| 20260506174735 | 71 | 195 | 4.3 | 7.8 | 0.00 | 0.00 | 0.00 | 58 | 1007.1 |
| 20260506174234 | 72 | 183 | 3.5 | 7.8 | 0.00 | 0.00 | 0.00 | 58 | 1007.0 |
| 20260506173734 | 71 | 234 | 2.6 | 8.7 | 0.00 | 0.00 | 0.00 | 59 | 1007.0 |
| 20260506173235 | 71 | 208 | 3.5 | 9.6 | 0.00 | 0.00 | 0.00 | 59 | 1007.2 |
| 20260506172734 | 71 | 187 | 3.5 | 9.6 | 0.00 | 0.00 | 0.00 | 58 | 1007.2 |
| 20260506172235 | 71 | 219 | 3.5 | 7.8 | 0.00 | 0.00 | 0.00 | 58 | 1007.2 |
| 20260506171735 | 71 | 205 | 2.6 | 7.0 | 0.00 | 0.00 | 0.00 | 58 | 1007.2 |
| 20260506171234 | 71 | 201 | 3.5 | 9.6 | 0.00 | 0.00 | 0.00 | 59 | 1007.2 |
| 20260506170735 | 71 | 218 | 3.5 | 9.6 | 0.00 | 0.00 | 0.00 | 59 | 1007.2 |
| 20260506170234 | 71 | 216 | 2.6 | 7.0 | 0.00 | 0.00 | 0.00 | 59 | 1007.2 |
| 20260506165732 | 70 | 178 | 2.6 | 7.0 | 0.00 | 0.00 | 0.00 | 60 | 1007.3 |
| 20260506165233 | 71 | 214 | 3.5 | 9.6 | 0.00 | 0.00 | 0.00 | 59 | 1007.5 |
| 20260506164726 | 71 | 217 | 2.6 | 9.6 | 0.00 | 0.00 | 0.00 | 60 | 1007.5 |
| 20260506164458 | 71 | 190 | 2.6 | 7.0 | 0.00 | 0.00 | 0.00 | 60 | 1007.5 |
| 20260506163725 | 71 | 176 | 2.6 | 7.8 | 0.00 | 0.00 | 0.00 | 60 | 1007.5 |
| 20260506163224 | 70 | 155 | 3.5 | 8.7 | 0.00 | 0.00 | 0.00 | 59 | 1007.6 |
| 20260506162724 | 70 | 216 | 3.5 | 8.7 | 0.00 | 0.00 | 0.00 | 59 | 1007.7 |
| 20260506162457 | 71 | 216 | 2.6 | 7.8 | 0.00 | 0.00 | 0.00 | 59 | 1007.8 |
| 20260506161711 | 71 | 201 | 3.5 | 7.0 | 0.00 | 0.00 | 0.00 | 59 | 1007.9 |
| 20260506161207 | 71 | 167 | 3.5 | 7.8 | 0.00 | 0.00 | 0.00 | 59 | 1008.0 |
| 20260506160706 | 71 | 156 | 3.5 | 7.8 | 0.00 | 0.00 | 0.00 | 58 | 1008.1 |
| 20260506160206 | 71 | 203 | 3.5 | 7.0 | 0.00 | 0.00 | 0.00 | 58 | 1008.1 |
| 20260506155706 | 71 | 201 | 2.6 | 6.1 | 0.00 | 0.00 | 0.00 | 58 | 1008.3 |
| 20260506155206 | 71 | 212 | 2.6 | 6.1 | 0.00 | 0.00 | 0.00 | 58 | 1008.4 |
| 20260506154706 | 71 | 209 | 3.5 | 7.0 | 0.00 | 0.00 | 0.00 | 58 | 1008.4 |
| 20260506154207 | 71 | 187 | 3.5 | 7.0 | 0.00 | 0.00 | 0.00 | 58 | 1008.5 |
| 20260506153706 | 71 | 233 | 3.5 | 8.7 | 0.00 | 0.00 | 0.00 | 58 | 1008.5 |
| 20260506153206 | 71 | 195 | 3.5 | 8.7 | 0.00 | 0.00 | 0.00 | 57 | 1008.7 |
| 20260506152935 | 72 | 213 | 2.6 | 7.8 | 0.00 | 0.00 | 0.00 | 56 | 1008.7 |
| 20260506152811 | 72 | 197 | 2.6 | 7.0 | 0.00 | 0.00 | 0.00 | 57 | 1008.7 |
| 20260506151705 | 72 | 205 | 2.6 | 5.2 | 0.00 | 0.00 | 0.00 | 58 | 1008.7 |
| 20260506151148 | 71 | 195 | 2.6 | 6.1 | 0.00 | 0.00 | 0.00 | 59 | 1008.7 |
| 20260506150640 | 70 | 199 | 3.5 | 7.8 | 0.00 | 0.00 | 0.00 | 60 | 1008.9 |
| 20260506150636 | 71 | 201 | 2.6 | 7.0 | 0.00 | 0.00 | 0.00 | 59 | 1008.8 |
| 20260506150243 | 70 | 235 | 2.6 | 7.8 | 0.00 | 0.00 | 0.00 | 61 | 1009.1 |
| 20260506145136 | 70 | 197 | 2.6 | 6.1 | 0.00 | 0.00 | 0.00 | 61 | 1008.9 |
| 20260506144634 | 70 | 195 | 2.6 | 6.1 | 0.00 | 0.00 | 0.00 | 61 | 1008.8 |
| 20260506144133 | 69 | 168 | 3.5 | 8.7 | 0.00 | 0.00 | 0.00 | 64 | 1008.8 |
| 20260506143630 | 69 | 203 | 3.5 | 8.7 | 0.00 | 0.00 | 0.00 | 64 | 1008.8 |
| 20260506143130 | 68 | 203 | 3.5 | 5.2 | 0.00 | 0.00 | 0.00 | 64 | 1008.8 |
| 20260506142904 | 68 | 182 | 2.6 | 7.0 | 0.00 | 0.00 | 0.00 | 64 | 1008.8 |
| 20260506142130 | 68 | 234 | 2.6 | 7.0 | 0.00 | 0.00 | 0.00 | 65 | 1008.7 |
| 20260506141628 | 68 | 223 | 2.6 | 7.0 | 0.00 | 0.00 | 0.00 | 66 | 1008.8 |
| 20260506141127 | 67 | 284 | 2.6 | 7.0 | 0.00 | 0.00 | 0.00 | 67 | 1008.8 |
| 20260506140612 | 67 | 22 | 2.6 | 6.1 | 0.00 | 0.00 | 0.00 | 68 | 1008.9 |
| 20260506140329 | 66 | 206 | 2.6 | 6.1 | 0.00 | 0.00 | 0.00 | 68 | 1008.9 |
| 20260506135816 | 66 | 191 | 2.6 | 7.8 | 0.00 | 0.00 | 0.00 | 69 | 1008.9 |
| 20260506135040 | 66 | 203 | 2.6 | 7.8 | 0.00 | 0.00 | 0.00 | 70 | 1008.9 |
| 20260506134540 | 65 | 214 | 2.6 | 7.0 | 0.00 | 0.00 | 0.00 | 71 | 1009.0 |
| 20260506134040 | 65 | 178 | 2.6 | 5.2 | 0.00 | 0.00 | 0.00 | 71 | 1009.2 |
| 20260506133541 | 65 | 233 | 2.6 | 5.2 | 0.00 | 0.00 | 0.00 | 72 | 1009.4 |
| 20260506133038 | 65 | 207 | 3.5 | 7.0 | 0.00 | 0.00 | 0.00 | 72 | 1009.5 |
| 20260506132807 | 65 | 178 | 2.6 | 7.0 | 0.00 | 0.00 | 0.00 | 72 | 1009.6 |
| 20260506132036 | 64 | 195 | 1.7 | 5.2 | 0.00 | 0.00 | 0.00 | 73 | 1009.5 |
| 20260506131537 | 64 | 205 | 1.7 | 4.3 | 0.00 | 0.00 | 0.00 | 73 | 1009.5 |
| 20260506131033 | 64 | 178 | 2.6 | 6.1 | 0.00 | 0.00 | 0.00 | 73 | 1009.4 |
| 20260506130528 | 64 | 207 | 2.6 | 8.7 | 0.00 | 0.00 | 0.00 | 73 | 1009.4 |
| 20260506130028 | 64 | 208 | 3.5 | 8.7 | 0.00 | 0.00 | 0.00 | 73 | 1009.3 |
| 20260506125529 | 64 | 183 | 3.5 | 8.7 | 0.00 | 0.00 | 0.00 | 73 | 1009.3 |
| 20260506125028 | 64 | 265 | 2.6 | 7.8 | 0.00 | 0.00 | 0.00 | 74 | 1009.5 |
| 20260506124529 | 63 | 207 | 2.6 | 7.0 | 0.00 | 0.00 | 0.00 | 75 | 1009.4 |
| 20260506124028 | 63 | 228 | 2.6 | 7.0 | 0.00 | 0.00 | 0.00 | 75 | 1009.6 |
| 20260506123528 | 62 | 196 | 2.6 | 6.1 | 0.00 | 0.00 | 0.00 | 76 | 1009.6 |
| 20260506123028 | 62 | 188 | 2.6 | 6.1 | 0.00 | 0.00 | 0.00 | 76 | 1009.6 |
| 20260506122527 | 62 | 194 | 2.6 | 7.8 | 0.00 | 0.00 | 0.00 | 76 | 1009.6 |
| 20260506122022 | 62 | 209 | 2.6 | 7.8 | 0.00 | 0.00 | 0.00 | 76 | 1009.4 |
| 20260506121512 | 62 | 209 | 2.6 | 5.2 | 0.00 | 0.00 | 0.00 | 77 | 1009.4 |
| 20260506121008 | 62 | 198 | 2.6 | 7.0 | 0.00 | 0.00 | 0.00 | 77 | 1009.4 |
| 20260506120507 | 61 | 195 | 2.6 | 7.0 | 0.00 | 0.00 | 0.00 | 78 | 1009.5 |
| 20260506120241 | 61 | 193 | 2.6 | 7.0 | 0.00 | 0.00 | 0.00 | 78 | 1009.8 |
| 20260506115508 | 61 | 243 | 2.6 | 7.0 | 0.00 | 0.00 | 0.00 | 78 | 1009.8 |
| 20260506115008 | 61 | 180 | 2.6 | 8.7 | 0.00 | 0.00 | 0.00 | 78 | 1009.7 |
| 20260506114506 | 61 | 212 | 2.6 | 8.7 | 0.00 | 0.00 | 0.00 | 78 | 1009.8 |
| 20260506114236 | 61 | 198 | 2.6 | 7.8 | 0.00 | 0.00 | 0.00 | 78 | 1010.0 |
| 20260506113503 | 61 | 239 | 2.6 | 7.8 | 0.00 | 0.00 | 0.00 | 78 | 1010.0 |
| 20260506113234 | 61 | 206 | 2.6 | 7.0 | 0.00 | 0.00 | 0.00 | 78 | 1010.0 |
| 20260506112458 | 61 | 174 | 2.6 | 7.0 | 0.00 | 0.00 | 0.00 | 78 | 1009.9 |
| 20260506111952 | 61 | 199 | 1.7 | 4.3 | 0.00 | 0.00 | 0.00 | 78 | 1009.7 |
| 20260506111437 | 60 | 223 | 2.6 | 6.1 | 0.00 | 0.00 | 0.00 | 78 | 1009.9 |
| 20260506110930 | 60 | 200 | 2.6 | 6.1 | 0.00 | 0.00 | 0.00 | 78 | 1009.8 |
| 20260506110701 | 60 | 198 | 1.7 | 5.2 | 0.00 | 0.00 | 0.00 | 79 | 1009.7 |
| 20260506105929 | 60 | 204 | 2.6 | 6.1 | 0.00 | 0.00 | 0.00 | 79 | 1009.7 |
| 20260506105659 | 60 | 148 | 2.6 | 6.1 | 0.00 | 0.00 | 0.00 | 79 | 1009.7 |
| 20260506104929 | 60 | 177 | 2.6 | 7.8 | 0.00 | 0.00 | 0.00 | 79 | 1009.7 |
| 20260506104428 | 60 | 60 | 2.6 | 7.8 | 0.00 | 0.00 | 0.00 | 79 | 1009.8 |
| 20260506104157 | 60 | 186 | 2.6 | 4.3 | 0.00 | 0.00 | 0.00 | 79 | 1009.8 |
| 20260506103427 | 60 | 208 | 1.7 | 4.3 | 0.00 | 0.00 | 0.00 | 79 | 1009.8 |
| 20260506102926 | 60 | 210 | 2.6 | 5.2 | 0.00 | 0.00 | 0.00 | 79 | 1009.9 |
| 20260506102426 | 60 | 207 | 1.7 | 6.1 | 0.00 | 0.00 | 0.00 | 79 | 1009.9 |
| 20260506101924 | 60 | 194 | 1.7 | 6.1 | 0.00 | 0.00 | 0.00 | 79 | 1009.8 |